| time (UTC) | temp F | wind direction | speed MPH | gust MPH | rain 1hr in | rain 24hr in | rain mn in | humidity % | barometer mb |
| 20260506131503 | 61 | 141 | 2.0 | 6.0 | 0.03 | 0.03 | 0.03 | 85 | 1010.7 |
| 20260506130009 | 62 | 132 | 2.0 | 9.0 | 0.02 | 0.02 | 0.02 | 83 | 1010.8 |
| 20260506124502 | 62 | 133 | 2.0 | 7.0 | 0.01 | 0.01 | 0.01 | 81 | 1010.7 |
| 20260506123010 | 62 | 161 | 4.0 | 10.0 | 0.00 | 0.00 | 0.00 | 79 | 1010.7 |
| 20260506121510 | 62 | 130 | 3.0 | 5.0 | 0.00 | 0.00 | 0.00 | 80 | 1010.4 |
| 20260506120006 | 63 | 138 | 2.0 | 5.0 | 0.00 | 0.00 | 0.00 | 79 | 1010.6 |
| 20260506114505 | 63 | 126 | 2.0 | 10.0 | 0.00 | 0.00 | 0.00 | 76 | 1010.6 |
| 20260506113007 | 64 | 125 | 5.0 | 11.0 | 0.00 | 0.00 | 0.00 | 75 | 1010.7 |
| 20260506111511 | 64 | 146 | 6.0 | 15.0 | 0.00 | 0.00 | 0.00 | 75 | 1010.5 |
| 20260506110016 | 64 | 138 | 5.0 | 15.0 | 0.00 | 0.00 | 0.00 | 75 | 1010.3 |
| 20260506104508 | 64 | 165 | 5.0 | 13.0 | 0.00 | 0.00 | 0.00 | 74 | 1010.3 |
| 20260506103010 | 64 | 130 | 4.0 | 12.0 | 0.00 | 0.00 | 0.00 | 73 | 1010.2 |
| 20260506101506 | 64 | 132 | 3.0 | 10.0 | 0.00 | 0.00 | 0.00 | 73 | 1010.2 |
| 20260506100013 | 65 | 107 | 4.0 | 16.0 | 0.00 | 0.00 | 0.00 | 73 | 1010.2 |
| 20260506094520 | 65 | 143 | 5.0 | 9.0 | 0.00 | 0.00 | 0.00 | 73 | 1010.2 |
| 20260506093019 | 65 | 154 | 5.0 | 10.0 | 0.00 | 0.00 | 0.00 | 73 | 1010.2 |
| 20260506091515 | 65 | 132 | 5.0 | 9.0 | 0.00 | 0.00 | 0.00 | 71 | 1010.2 |
| 20260506090018 | 65 | 105 | 3.0 | 11.0 | 0.00 | 0.00 | 0.00 | 72 | 1010.3 |
| 20260506084507 | 65 | 171 | 5.0 | 10.0 | 0.00 | 0.00 | 0.00 | 71 | 1010.5 |
| 20260506083022 | 65 | 125 | 4.0 | 9.0 | 0.00 | 0.00 | 0.00 | 70 | 1010.6 |
| 20260506081529 | 65 | 110 | 3.0 | 11.0 | 0.00 | 0.00 | 0.00 | 70 | 1010.5 |
| 20260506073003 | 66 | 118 | 4.0 | 10.0 | 0.00 | 0.00 | 0.00 | 67 | 1010.7 |
| 20260506071504 | 67 | 106 | 7.0 | 16.0 | 0.00 | 0.00 | 0.00 | 67 | 1010.7 |
| 20260506061503 | 68 | 136 | 5.0 | 12.0 | 0.00 | 0.00 | 0.00 | 63 | 1011.1 |
| 20260506044506 | 70 | 128 | 5.0 | 18.0 | 0.00 | 0.00 | 0.00 | 58 | 1011.4 |
| 20260506043006 | 70 | 136 | 7.0 | 13.0 | 0.00 | 0.00 | 0.00 | 57 | 1011.4 |
| 20260506041524 | 71 | 125 | 5.0 | 12.0 | 0.00 | 0.00 | 0.00 | 59 | 1011.2 |
| 20260506040003 | 71 | 119 | 6.0 | 11.0 | 0.00 | 0.00 | 0.00 | 56 | 1011.4 |
| 20260506034508 | 71 | 129 | 4.0 | 16.0 | 0.00 | 0.00 | 0.00 | 56 | 1011.4 |
| 20260506033006 | 71 | 100 | 2.0 | 8.0 | 0.00 | 0.00 | 0.00 | 55 | 1011.3 |
| 20260506031505 | 71 | 144 | 4.0 | 9.0 | 0.00 | 0.00 | 0.00 | 55 | 1011.3 |
| 20260506030004 | 71 | 130 | 2.0 | 6.0 | 0.00 | 0.00 | 0.00 | 55 | 1011.5 |
| 20260506024524 | 71 | 122 | 1.0 | 6.0 | 0.00 | 0.00 | 0.00 | 55 | 1011.6 |
| 20260506023009 | 71 | 127 | 0.0 | 3.0 | 0.00 | 0.00 | 0.00 | 54 | 1011.7 |
| 20260506021512 | 71 | 128 | 0.0 | 2.0 | 0.00 | 0.00 | 0.00 | 54 | 1011.6 |
| 20260506020008 | 72 | 119 | 0.0 | 5.0 | 0.00 | 0.00 | 0.00 | 51 | 1011.6 |
| 20260506014509 | 72 | 111 | 1.0 | 6.0 | 0.00 | 0.00 | 0.00 | 50 | 1011.5 |
| 20260506013004 | 72 | 127 | 0.0 | 3.0 | 0.00 | 0.00 | 0.00 | 50 | 1011.4 |
| 20260506011510 | 73 | 123 | 0.0 | 4.0 | 0.00 | 0.00 | 0.00 | 47 | 1011.3 |
| 20260506010006 | 74 | 130 | 0.0 | 3.0 | 0.00 | 0.00 | 0.00 | 45 | 1011.1 |
| 20260506004506 | 75 | 130 | 2.0 | 7.0 | 0.00 | 0.00 | 0.00 | 42 | 1010.9 |
| 20260506003003 | 75 | 130 | 3.0 | 9.0 | 0.00 | 0.00 | 0.00 | 41 | 1010.7 |
| 20260506001502 | 76 | 134 | 5.0 | 13.0 | 0.00 | 0.00 | 0.00 | 39 | 1010.7 |
| 20260506000004 | 77 | 130 | 5.0 | 10.0 | 0.00 | 0.00 | 0.00 | 41 | 1010.5 |
| 20260505234504 | 77 | 122 | 3.0 | 11.0 | 0.00 | 0.00 | 0.00 | 38 | 1010.3 |
| 20260505233003 | 77 | 130 | 6.0 | 11.0 | 0.00 | 0.00 | 0.00 | 39 | 1010.3 |
| 20260505231503 | 78 | 143 | 6.0 | 11.0 | 0.00 | 0.00 | 0.00 | 36 | 1010.3 |
| 20260505230002 | 79 | 136 | 8.0 | 19.0 | 0.00 | 0.00 | 0.00 | 35 | 1010.3 |
| 20260505224503 | 79 | 148 | 8.0 | 17.0 | 0.00 | 0.00 | 0.00 | 35 | 1010.4 |
| 20260505223003 | 80 | 143 | 9.0 | 21.0 | 0.00 | 0.00 | 0.00 | 33 | 1010.5 |
| 20260505221504 | 80 | 167 | 11.0 | 27.0 | 0.00 | 0.00 | 0.00 | 29 | 1010.3 |
| 20260505220003 | 81 | 136 | 14.0 | 22.0 | 0.00 | 0.00 | 0.00 | 33 | 1010.0 |
| 20260505214503 | 80 | 149 | 14.0 | 23.0 | 0.00 | 0.00 | 0.00 | 30 | 1010.0 |
| 20260505213005 | 80 | 94 | 5.0 | 23.0 | 0.00 | 0.00 | 0.00 | 31 | 1009.9 |
| 20260505211505 | 80 | 139 | 10.0 | 26.0 | 0.00 | 0.00 | 0.00 | 29 | 1010.1 |
| 20260505210005 | 80 | 167 | 14.0 | 25.0 | 0.00 | 0.00 | 0.00 | 30 | 1010.0 |
| 20260505204511 | 81 | 131 | 13.0 | 25.0 | 0.00 | 0.00 | 0.00 | 28 | 1010.1 |
| 20260505203003 | 81 | 157 | 11.0 | 21.0 | 0.00 | 0.00 | 0.00 | 33 | 1010.1 |
| 20260505201510 | 81 | 119 | 10.0 | 21.0 | 0.00 | 0.00 | 0.00 | 32 | 1010.1 |
| 20260505200003 | 81 | 136 | 10.0 | 24.0 | 0.00 | 0.00 | 0.00 | 30 | 1010.2 |
| 20260505194503 | 81 | 166 | 10.0 | 24.0 | 0.00 | 0.00 | 0.00 | 31 | 1010.5 |
| 20260505193017 | 80 | 131 | 9.0 | 23.0 | 0.00 | 0.00 | 0.00 | 33 | 1010.7 |
| 20260505191503 | 80 | 145 | 10.0 | 24.0 | 0.00 | 0.00 | 0.00 | 31 | 1010.7 |
| 20260505190007 | 80 | 123 | 7.0 | 24.0 | 0.00 | 0.00 | 0.00 | 35 | 1011.0 |
| 20260505184511 | 80 | 116 | 12.0 | 23.0 | 0.00 | 0.00 | 0.00 | 35 | 1011.3 |
| 20260505183003 | 79 | 165 | 10.0 | 23.0 | 0.00 | 0.00 | 0.00 | 40 | 1011.6 |
| 20260505181504 | 79 | 130 | 8.0 | 19.0 | 0.00 | 0.00 | 0.00 | 35 | 1011.6 |
| 20260505180011 | 79 | 144 | 6.0 | 23.0 | 0.00 | 0.00 | 0.00 | 36 | 1011.8 |
| 20260505174509 | 78 | 130 | 8.0 | 23.0 | 0.00 | 0.00 | 0.00 | 36 | 1011.7 |
| 20260505173010 | 77 | 181 | 11.0 | 23.0 | 0.00 | 0.00 | 0.00 | 39 | 1011.8 |
| 20260505171512 | 77 | 155 | 14.0 | 22.0 | 0.00 | 0.00 | 0.00 | 40 | 1012.0 |
| 20260505170009 | 77 | 134 | 14.0 | 22.0 | 0.00 | 0.00 | 0.00 | 39 | 1012.2 |
| 20260505164504 | 76 | 139 | 11.0 | 21.0 | 0.00 | 0.00 | 0.00 | 42 | 1012.4 |
| 20260505163016 | 76 | 193 | 9.0 | 14.0 | 0.00 | 0.00 | 0.00 | 42 | 1012.6 |
| 20260505161518 | 75 | 184 | 6.0 | 18.0 | 0.00 | 0.00 | 0.00 | 47 | 1012.8 |
| 20260505153007 | 73 | 155 | 6.0 | 10.0 | 0.00 | 0.00 | 0.00 | 50 | 1013.1 |
| 20260505151507 | 72 | 178 | 3.0 | 12.0 | 0.00 | 0.00 | 0.00 | 50 | 1013.2 |